Time,TemperatureF,DewpointF,PressureIn,WindDirection,WindDirectionDegrees,WindSpeedMPH,WindSpeedGustMPH,Humidity,HourlyPrecipIn,Conditions,Clouds,dailyrainin,SoftwareType,DateUTC
2013-08-19 00:13:00,56.8,56.2,29.99,ESE,112,0.0,-999.0,98,-99.99,,,0.00,Acu-Link.com,2013-08-19 07:13:00,
2013-08-19 00:28:00,56.8,56.2,29.99,ENE,67,0.0,-999.0,98,-99.99,,,0.00,Acu-Link.com,2013-08-19 07:28:00,
2013-08-19 00:44:00,56.8,56.2,29.99,ESE,112,0.0,-999.0,98,-99.99,,,0.00,Acu-Link.com,2013-08-19 07:44:00,
2013-08-19 00:59:00,56.7,56.1,29.99,ESE,112,0.0,-999.0,98,-99.99,,,0.00,Acu-Link.com,2013-08-19 07:59:00,
2013-08-19 01:14:00,57.2,56.6,29.99,ESE,112,0.0,-999.0,98,-99.99,,,0.00,Acu-Link.com,2013-08-19 08:14:00,
2013-08-19 01:33:00,57.6,57.0,30.00,NE,45,0.0,-999.0,98,-99.99,,,0.00,Acu-Link.com,2013-08-19 08:33:00,
2013-08-19 01:53:00,57.9,57.3,29.99,West,270,0.0,-999.0,98,-99.99,,,0.00,Acu-Link.com,2013-08-19 08:53:00,
2013-08-19 02:08:00,58.8,58.2,29.98,West,270,0.0,-999.0,98,-99.99,,,0.00,Acu-Link.com,2013-08-19 09:08:00,
2013-08-19 02:24:00,58.8,58.2,29.98,NW,315,0.0,-999.0,98,-99.99,,,0.00,Acu-Link.com,2013-08-19 09:24:00,
2013-08-19 02:39:00,58.8,58.2,29.99,ESE,112,0.0,-999.0,98,-99.99,,,0.00,Acu-Link.com,2013-08-19 09:39:00,
2013-08-19 02:54:00,58.8,58.2,29.98,SSE,157,0.0,-999.0,98,-99.99,,,0.00,Acu-Link.com,2013-08-19 09:54:00,
2013-08-19 03:09:00,58.8,58.2,29.98,South,180,0.0,-999.0,98,-99.99,,,0.00,Acu-Link.com,2013-08-19 10:09:00,
2013-08-19 03:25:00,58.8,58.2,29.97,West,270,0.0,-999.0,98,-99.99,,,0.00,Acu-Link.com,2013-08-19 10:25:00,
2013-08-19 03:40:00,58.8,58.2,29.98,SE,135,0.0,-999.0,98,-99.99,,,0.00,Acu-Link.com,2013-08-19 10:40:00,
2013-08-19 03:55:00,58.5,57.9,29.98,ESE,112,0.0,-999.0,98,-99.99,,,0.00,Acu-Link.com,2013-08-19 10:55:00,
2013-08-19 04:10:00,58.5,57.9,29.99,ESE,112,0.0,-999.0,98,-99.99,,,0.00,Acu-Link.com,2013-08-19 11:10:00,
2013-08-19 04:26:00,58.5,57.9,29.98,SSE,157,0.0,-999.0,98,-99.99,,,0.00,Acu-Link.com,2013-08-19 11:26:00,
2013-08-19 04:41:00,58.5,57.9,29.97,SSE,157,0.0,-999.0,98,-99.99,,,0.00,Acu-Link.com,2013-08-19 11:41:00,
2013-08-19 04:56:00,58.1,57.5,29.98,ESE,112,0.0,-999.0,98,-99.99,,,0.00,Acu-Link.com,2013-08-19 11:56:00,
2013-08-19 05:12:00,57.9,57.3,29.98,ESE,112,0.0,-999.0,98,-99.99,,,0.00,Acu-Link.com,2013-08-19 12:12:00,
2013-08-19 05:36:00,57.7,57.1,29.98,ESE,112,0.0,-999.0,98,-99.99,,,0.00,Acu-Link.com,2013-08-19 12:36:00,
2013-08-19 05:54:00,57.6,57.0,29.98,ESE,112,0.0,-999.0,98,-99.99,,,0.00,Acu-Link.com,2013-08-19 12:54:00,
2013-08-19 06:09:00,57.6,57.0,29.98,ESE,112,0.0,-999.0,98,-99.99,,,0.00,Acu-Link.com,2013-08-19 13:09:00,
2013-08-19 06:25:00,57.6,57.0,29.98,ESE,112,0.0,-999.0,98,-99.99,,,0.00,Acu-Link.com,2013-08-19 13:25:00,
2013-08-19 06:40:00,57.6,57.0,29.99,SSE,157,0.0,-999.0,98,-99.99,,,0.00,Acu-Link.com,2013-08-19 13:40:00,
2013-08-19 06:55:00,57.6,57.0,29.99,East,90,0.0,-999.0,98,-99.99,,,0.00,Acu-Link.com,2013-08-19 13:55:00,
2013-08-19 07:10:00,57.6,57.0,29.99,ESE,112,0.0,-999.0,98,-99.99,,,0.00,Acu-Link.com,2013-08-19 14:10:00,
2013-08-19 07:25:00,57.9,57.3,30.01,NNW,337,0.0,-999.0,98,-99.99,,,0.00,Acu-Link.com,2013-08-19 14:25:00,
2013-08-19 07:41:00,58.3,57.7,30.01,East,90,0.0,-999.0,98,-99.99,,,0.00,Acu-Link.com,2013-08-19 14:41:00,
2013-08-19 07:56:00,59.2,58.6,30.00,NE,45,0.0,-999.0,98,-99.99,,,0.00,Acu-Link.com,2013-08-19 14:56:00,
2013-08-19 08:11:00,59.5,58.9,30.00,West,270,0.0,-999.0,98,-99.99,,,0.00,Acu-Link.com,2013-08-19 15:11:00,
2013-08-19 08:27:00,60.6,59.2,30.01,NNE,22,0.0,-999.0,95,-99.99,,,0.00,Acu-Link.com,2013-08-19 15:27:00,
2013-08-19 08:42:00,61.5,59.5,30.01,SE,135,0.0,-999.0,93,-99.99,,,0.00,Acu-Link.com,2013-08-19 15:42:00,
2013-08-19 08:58:00,62.2,59.2,30.02,WSW,247,0.0,-999.0,90,-99.99,,,0.00,Acu-Link.com,2013-08-19 15:58:00,
2013-08-19 09:14:00,62.6,59.6,30.03,SE,135,0.0,-999.0,90,-99.99,,,0.00,Acu-Link.com,2013-08-19 16:14:00,
2013-08-19 09:29:00,63.0,60.0,30.03,SSW,202,0.0,-999.0,90,-99.99,,,0.00,Acu-Link.com,2013-08-19 16:29:00,
2013-08-19 09:44:00,64.0,60.7,30.02,SW,225,0.0,-999.0,89,-99.99,,,0.00,Acu-Link.com,2013-08-19 16:44:00,
2013-08-19 09:59:00,66.2,61.2,30.02,South,180,0.0,-999.0,84,-99.99,,,0.00,Acu-Link.com,2013-08-19 16:59:00,
2013-08-19 10:15:00,69.3,62.9,30.02,SW,225,0.0,-999.0,80,-99.99,,,0.00,Acu-Link.com,2013-08-19 17:15:00,
2013-08-19 10:30:00,68.7,61.9,30.02,West,270,0.0,-999.0,79,-99.99,,,0.00,Acu-Link.com,2013-08-19 17:30:00,
2013-08-19 10:45:00,71.6,62.9,30.02,NNE,22,0.0,-999.0,74,-99.99,,,0.00,Acu-Link.com,2013-08-19 17:45:00,
2013-08-19 11:01:00,75.4,64.1,30.02,WNW,292,2.7,-999.0,68,-99.99,,,0.00,Acu-Link.com,2013-08-19 18:01:00,
2013-08-19 11:16:00,76.8,65.0,30.01,SE,135,0.0,-999.0,67,-99.99,,,0.00,Acu-Link.com,2013-08-19 18:16:00,
2013-08-19 11:31:00,77.9,64.3,30.00,NW,315,1.7,-999.0,63,-99.99,,,0.00,Acu-Link.com,2013-08-19 18:31:00,
2013-08-19 11:47:00,78.3,64.2,30.00,West,270,1.1,-999.0,62,-99.99,,,0.00,Acu-Link.com,2013-08-19 18:47:00,
2013-08-19 12:02:00,80.1,64.9,30.00,NW,315,3.7,-999.0,60,-99.99,,,0.00,Acu-Link.com,2013-08-19 19:02:00,
2013-08-19 12:17:00,79.7,64.1,30.00,NE,45,6.3,-999.0,59,-99.99,,,0.00,Acu-Link.com,2013-08-19 19:17:00,
2013-08-19 12:32:00,82.9,65.0,30.00,West,270,1.7,-999.0,55,-99.99,,,0.00,Acu-Link.com,2013-08-19 19:32:00,
2013-08-19 12:47:00,82.6,64.8,29.98,NNW,337,7.8,-999.0,55,-99.99,,,0.00,Acu-Link.com,2013-08-19 19:47:00,
2013-08-19 13:03:00,81.1,64.4,30.00,ENE,67,5.8,-999.0,57,-99.99,,,0.00,Acu-Link.com,2013-08-19 20:03:00,
2013-08-19 13:18:00,79.9,63.3,29.99,WNW,292,3.7,-999.0,57,-99.99,,,0.00,Acu-Link.com,2013-08-19 20:18:00,
2013-08-19 13:33:00,81.1,63.4,29.98,West,270,4.7,-999.0,55,-99.99,,,0.00,Acu-Link.com,2013-08-19 20:33:00,
2013-08-19 13:48:00,82.6,62.6,29.97,WSW,247,3.2,-999.0,51,-99.99,,,0.00,Acu-Link.com,2013-08-19 20:48:00,
2013-08-19 14:04:00,81.7,60.1,29.98,East,90,4.2,-999.0,48,-99.99,,,0.00,Acu-Link.com,2013-08-19 21:04:00,
2013-08-19 14:19:00,80.1,59.8,29.97,NNE,22,8.3,-999.0,50,-99.99,,,0.00,Acu-Link.com,2013-08-19 21:19:00,
2013-08-19 14:34:00,82.4,60.1,29.97,South,180,1.7,-999.0,47,-99.99,,,0.00,Acu-Link.com,2013-08-19 21:34:00,
2013-08-19 14:49:00,81.0,59.4,29.97,North,0,8.3,-999.0,48,-99.99,,,0.00,Acu-Link.com,2013-08-19 21:49:00,
2013-08-19 15:05:00,80.2,59.3,29.97,NNE,22,8.3,-999.0,49,-99.99,,,0.00,Acu-Link.com,2013-08-19 22:05:00,
2013-08-19 15:20:00,80.2,59.3,29.96,NNE,22,5.8,-999.0,49,-99.99,,,0.00,Acu-Link.com,2013-08-19 22:20:00,
2013-08-19 15:35:00,80.2,59.9,29.95,NNE,22,4.7,-999.0,50,-99.99,,,0.00,Acu-Link.com,2013-08-19 22:35:00,
2013-08-19 15:50:00,79.2,60.0,29.97,North,0,8.3,-999.0,52,-99.99,,,0.00,Acu-Link.com,2013-08-19 22:50:00,
2013-08-19 16:05:00,77.7,61.2,29.94,NNE,22,7.3,-999.0,57,-99.99,,,0.00,Acu-Link.com,2013-08-19 23:05:00,
2013-08-19 16:20:00,77.0,62.5,29.94,WNW,292,9.9,-999.0,61,-99.99,,,0.00,Acu-Link.com,2013-08-19 23:20:00,
2013-08-19 16:36:00,75.7,62.6,29.96,WNW,292,10.9,-999.0,64,-99.99,,,0.00,Acu-Link.com,2013-08-19 23:36:00,
2013-08-19 16:51:00,75.2,63.0,29.94,North,0,3.7,-999.0,66,-99.99,,,0.00,Acu-Link.com,2013-08-19 23:51:00,
2013-08-19 17:06:00,75.9,62.8,29.94,NNE,22,6.3,-999.0,64,-99.99,,,0.00,Acu-Link.com,2013-08-20 00:06:00,
2013-08-19 17:21:00,74.7,62.6,29.94,West,270,2.7,-999.0,66,-99.99,,,0.00,Acu-Link.com,2013-08-20 00:21:00,
2013-08-19 17:37:00,74.5,62.4,29.93,NE,45,8.3,-999.0,66,-99.99,,,0.00,Acu-Link.com,2013-08-20 00:37:00,
2013-08-19 17:52:00,74.1,62.0,29.94,NE,45,6.8,-999.0,66,-99.99,,,0.00,Acu-Link.com,2013-08-20 00:52:00,
2013-08-19 18:07:00,73.9,61.8,29.93,NNE,22,10.4,-999.0,66,-99.99,,,0.00,Acu-Link.com,2013-08-20 01:07:00,
2013-08-19 18:22:00,72.7,61.9,29.94,ENE,67,8.3,-999.0,69,-99.99,,,0.00,Acu-Link.com,2013-08-20 01:22:00,
2013-08-19 18:37:00,72.1,60.9,29.93,NNW,337,6.3,-999.0,68,-99.99,,,0.00,Acu-Link.com,2013-08-20 01:37:00,
2013-08-19 18:52:00,70.7,60.4,29.94,East,90,2.2,-999.0,70,-99.99,,,0.00,Acu-Link.com,2013-08-20 01:52:00,
2013-08-19 19:08:00,69.8,60.0,29.93,WSW,247,3.2,-999.0,71,-99.99,,,0.00,Acu-Link.com,2013-08-20 02:08:00,
2013-08-19 19:23:00,68.5,59.1,29.93,WNW,292,3.7,-999.0,72,-99.99,,,0.00,Acu-Link.com,2013-08-20 02:23:00,
2013-08-19 19:38:00,67.1,58.9,29.94,NNW,337,4.7,-999.0,75,-99.99,,,0.00,Acu-Link.com,2013-08-20 02:38:00,
2013-08-19 19:53:00,66.2,58.4,29.95,ENE,67,3.2,-999.0,76,-99.99,,,0.00,Acu-Link.com,2013-08-20 02:53:00,
2013-08-19 20:08:00,64.2,58.2,29.95,SW,225,3.7,-999.0,81,-99.99,,,0.00,Acu-Link.com,2013-08-20 03:08:00,
2013-08-19 20:23:00,63.1,57.8,29.96,North,0,2.7,-999.0,83,-99.99,,,0.00,Acu-Link.com,2013-08-20 03:23:00,
2013-08-19 20:39:00,62.6,57.7,29.98,North,0,3.2,-999.0,84,-99.99,,,0.00,Acu-Link.com,2013-08-20 03:39:00,
2013-08-19 20:54:00,62.1,57.5,29.98,ESE,112,1.7,-999.0,85,-99.99,,,0.00,Acu-Link.com,2013-08-20 03:54:00,
2013-08-19 21:09:00,61.7,57.1,29.97,NNE,22,2.2,-999.0,85,-99.99,,,0.00,Acu-Link.com,2013-08-20 04:09:00,
2013-08-19 21:25:00,60.3,56.4,29.98,NNE,22,0.0,-999.0,87,-99.99,,,0.00,Acu-Link.com,2013-08-20 04:25:00,
2013-08-19 21:40:00,60.3,57.0,30.00,West,270,1.7,-999.0,89,-99.99,,,0.00,Acu-Link.com,2013-08-20 04:40:00,
2013-08-19 21:55:00,60.3,57.4,30.00,NNE,22,2.2,-999.0,90,-99.99,,,0.00,Acu-Link.com,2013-08-20 04:55:00,
2013-08-19 22:11:00,59.4,56.5,29.98,East,90,0.0,-999.0,90,-99.99,,,0.00,Acu-Link.com,2013-08-20 05:11:00,
2013-08-19 22:26:00,58.1,55.8,29.98,East,90,1.7,-999.0,92,-99.99,,,0.00,Acu-Link.com,2013-08-20 05:26:00,
2013-08-19 22:41:00,57.7,56.0,29.98,NNE,22,0.0,-999.0,94,-99.99,,,0.00,Acu-Link.com,2013-08-20 05:41:00,
2013-08-19 22:56:00,57.6,55.9,29.99,East,90,0.0,-999.0,94,-99.99,,,0.00,Acu-Link.com,2013-08-20 05:56:00,
2013-08-19 23:12:00,57.0,55.6,30.00,NE,45,2.2,-999.0,95,-99.99,,,0.00,Acu-Link.com,2013-08-20 06:12:00,
2013-08-19 23:27:00,56.8,55.4,29.98,ESE,112,0.0,-999.0,95,-99.99,,,0.00,Acu-Link.com,2013-08-20 06:27:00,
2013-08-19 23:42:00,56.5,55.1,29.98,ESE,112,0.0,-999.0,95,-99.99,,,0.00,Acu-Link.com,2013-08-20 06:42:00,
2013-08-19 23:58:00,55.9,54.8,29.99,ESE,112,0.0,-999.0,96,-99.99,,,0.00,Acu-Link.com,2013-08-20 06:58:00,